Location: Geroldsau
(48.7259°N, 8.2466°E)
Time: 09:06:12
(UTC+00:00)

Lacrosse 5 rocket - Pass Details

Date: 20 June 2021
Orbit: 460 x 633 km, 57.0° (Epoch: 01 August)

Event Time Altitude Azimuth Distance (km) Brightness Sun altitude
Rises 01:29:13 0° 305° (NW) 2,489 4.8 -13.0°
Reaches altitude 10° 01:31:28 10° 314° (NW) 1,615 3.9 -12.8°
Maximum altitude 01:34:49 35° 22° (NNE) 775 2.8 -12.5°
Drops below altitude 10° 01:38:13 10° 90° (E) 1,645 4.2 -12.2°
Sets 01:40:32 0° 100° (E) 2,544 5.0 -12.1°
